{"data":{"norad_id":59963,"intl_designator":"2024-107U","name":"STARLINK-31991","alt_names":[],"object_type":"PAYLOAD","status":"ACTIVE","operator":null,"country":"US","launch_date":"2024-06-05","launch_site_code":"AFETR","launch_vehicle":null,"mission":null,"orbit_class":"UNKNOWN","rcs_meters":null,"size_class":null,"mass_kg":null,"dimensions":null,"purposes":["comms"],"wikipedia_slug":null,"has_3d_model":false,"image_url":null,"decayed_at":null,"tle_current":{"epoch":"2026-05-25T02:06:42.151968Z","epoch_age_seconds":64898,"freshness":"FRESH","line1":"1 59963U 24107U   26145.08798787  .00002543  00000+0  97945-4 0  9999","line2":"2 59963  53.1608  70.6482 0001268 114.6588 245.4545 15.30207037111497","mean_motion":15.30207037,"eccentricity":0.0001268,"inclination_deg":53.1608,"raan_deg":70.6482,"arg_perigee_deg":114.6588,"mean_anomaly_deg":245.4545,"bstar":9.7945e-5,"rev_number":11149,"period_min":94.104912941921,"perigee_km":474.32505590808,"apogee_km":476.06306066446,"semimajor_km":6853.3310582863,"source":"CELESTRAK","updated_at":"2026-05-25T13:38:19.130304Z"}}}